| time (UTC) | temp C | wind direction | speed KPH | gust KPH | rain 1hr cm | rain 24hr cm | rain mn cm | humidity % | barometer mb |
| 20260502231904 | 11 | 206 | 3.2 | 4.8 | 0.00 | 0.00 | 0.00 | 75 | 1010.0 |
| 20260502231404 | 11 | 206 | 3.2 | 4.8 | 0.00 | 0.00 | 0.00 | 75 | 1010.1 |
| 20260502230904 | 12 | 227 | 1.6 | 3.2 | 0.00 | 0.00 | 0.00 | 75 | 1010.1 |
| 20260502230404 | 12 | 227 | 3.2 | 4.8 | 0.00 | 0.00 | 0.00 | 74 | 1010.2 |
| 20260502225903 | 12 | 227 | 3.2 | 4.8 | 0.00 | 0.00 | 0.00 | 74 | 1010.3 |
| 20260502225403 | 12 | 227 | 3.2 | 4.8 | 0.00 | 0.00 | 0.00 | 73 | 1010.2 |
| 20260502224905 | 12 | 224 | 4.8 | 4.8 | 0.00 | 0.00 | 0.00 | 73 | 1010.3 |
| 20260502224403 | 12 | 236 | 3.2 | 4.8 | 0.00 | 0.00 | 0.00 | 73 | 1010.2 |
| 20260502223905 | 12 | 232 | 4.8 | 4.8 | 0.00 | 0.00 | 0.00 | 73 | 1010.3 |
| 20260502223404 | 12 | 225 | 4.8 | 8.0 | 0.00 | 0.00 | 0.00 | 74 | 1010.3 |
| 20260502222904 | 12 | 216 | 6.4 | 9.7 | 0.00 | 0.00 | 0.00 | 74 | 1010.3 |
| 20260502221404 | 12 | 214 | 4.8 | 8.0 | 0.00 | 0.00 | 0.00 | 77 | 1010.4 |
| 20260502220904 | 12 | 213 | 4.8 | 8.0 | 0.00 | 0.00 | 0.00 | 78 | 1010.4 |
| 20260502215404 | 12 | 259 | 3.2 | 4.8 | 0.00 | 0.00 | 0.00 | 77 | 1010.3 |
| 20260502214903 | 12 | 253 | 3.2 | 4.8 | 0.00 | 0.00 | 0.00 | 77 | 1010.5 |
| 20260502214403 | 12 | 233 | 4.8 | 8.0 | 0.00 | 0.00 | 0.00 | 77 | 1010.5 |
| 20260502213904 | 12 | 225 | 4.8 | 8.0 | 0.00 | 0.00 | 0.00 | 77 | 1010.6 |
| 20260502212904 | 12 | 202 | 3.2 | 4.8 | 0.00 | 0.00 | 0.00 | 76 | 1010.5 |
| 20260502211403 | 13 | 239 | 4.8 | 12.9 | 0.00 | 0.00 | 0.00 | 74 | 1010.8 |
| 20260502210904 | 13 | 243 | 11.3 | 16.1 | 0.00 | 0.00 | 0.00 | 74 | 1011.0 |
| 20260502210404 | 13 | 247 | 11.3 | 22.5 | 0.00 | 0.00 | 0.00 | 73 | 1011.0 |
| 20260502205903 | 14 | 257 | 14.5 | 19.3 | 0.00 | 0.00 | 0.00 | 74 | 1011.3 |
| 20260502205404 | 15 | 255 | 11.3 | 19.3 | 0.00 | 0.00 | 0.00 | 72 | 1010.9 |
| 20260502204904 | 15 | 264 | 14.5 | 27.4 | 0.00 | 0.00 | 0.00 | 70 | 1011.0 |
| 20260502204404 | 15 | 257 | 16.1 | 27.4 | 0.00 | 0.00 | 0.00 | 71 | 1011.0 |
| 20260502203904 | 15 | 248 | 22.5 | 29.0 | 0.00 | 0.00 | 0.00 | 71 | 1010.9 |
| 20260502203404 | 15 | 248 | 22.5 | 32.2 | 0.00 | 0.00 | 0.00 | 72 | 1010.9 |
| 20260502202904 | 15 | 245 | 19.3 | 24.1 | 0.00 | 0.00 | 0.00 | 72 | 1010.8 |
| 20260502202403 | 16 | 242 | 20.9 | 27.4 | 0.00 | 0.00 | 0.00 | 71 | 1010.7 |
| 20260502201902 | 15 | 240 | 17.7 | 22.5 | 0.00 | 0.00 | 0.00 | 70 | 1010.8 |
| 20260502201402 | 16 | 250 | 16.1 | 20.9 | 0.00 | 0.00 | 0.00 | 67 | 1010.8 |
| 20260502200903 | 15 | 255 | 12.9 | 19.3 | 0.00 | 0.00 | 0.00 | 66 | 1010.8 |
| 20260502200402 | 15 | 251 | 11.3 | 16.1 | 0.00 | 0.00 | 0.00 | 64 | 1010.8 |
| 20260502195903 | 16 | 243 | 12.9 | 16.1 | 0.00 | 0.00 | 0.00 | 63 | 1010.6 |
| 20260502195402 | 16 | 241 | 14.5 | 19.3 | 0.00 | 0.00 | 0.00 | 63 | 1010.6 |
| 20260502194403 | 16 | 237 | 12.9 | 19.3 | 0.00 | 0.00 | 0.00 | 62 | 1010.6 |
| 20260502193902 | 15 | 237 | 12.9 | 19.3 | 0.00 | 0.00 | 0.00 | 62 | 1010.6 |
| 20260502193402 | 15 | 247 | 11.3 | 16.1 | 0.00 | 0.00 | 0.00 | 62 | 1010.7 |
| 20260502192903 | 16 | 246 | 12.9 | 19.3 | 0.00 | 0.00 | 0.00 | 61 | 1010.7 |
| 20260502192402 | 16 | 251 | 11.3 | 16.1 | 0.00 | 0.00 | 0.00 | 61 | 1010.7 |
| 20260502191902 | 16 | 248 | 12.9 | 16.1 | 0.00 | 0.00 | 0.00 | 61 | 1010.7 |
| 20260502190902 | 16 | 259 | 8.0 | 12.9 | 0.00 | 0.00 | 0.00 | 60 | 1010.6 |
| 20260502185903 | 16 | 249 | 11.3 | 19.3 | 0.00 | 0.00 | 0.00 | 58 | 1010.5 |
| 20260502185401 | 17 | 256 | 11.3 | 19.3 | 0.00 | 0.00 | 0.00 | 58 | 1010.5 |
| 20260502184902 | 17 | 249 | 14.5 | 19.3 | 0.00 | 0.00 | 0.00 | 57 | 1010.6 |
| 20260502184402 | 17 | 248 | 16.1 | 19.3 | 0.00 | 0.00 | 0.00 | 56 | 1010.5 |
| 20260502183902 | 17 | 253 | 16.1 | 22.5 | 0.00 | 0.00 | 0.00 | 56 | 1010.5 |
| 20260502183402 | 17 | 249 | 16.1 | 20.9 | 0.00 | 0.00 | 0.00 | 55 | 1010.5 |
| 20260502182903 | 17 | 250 | 14.5 | 20.9 | 0.00 | 0.00 | 0.00 | 55 | 1010.5 |
| 20260502181902 | 17 | 256 | 11.3 | 19.3 | 0.00 | 0.00 | 0.00 | 54 | 1010.6 |
| 20260502181402 | 18 | 255 | 8.0 | 20.9 | 0.00 | 0.00 | 0.00 | 53 | 1010.5 |
| 20260502180902 | 18 | 257 | 14.5 | 19.3 | 0.00 | 0.00 | 0.00 | 52 | 1010.5 |
| 20260502180402 | 18 | 246 | 16.1 | 25.7 | 0.00 | 0.00 | 0.00 | 50 | 1010.5 |
| 20260502170402 | 20 | 243 | 20.9 | 27.4 | 0.00 | 0.00 | 0.00 | 45 | 1010.6 |
| 20260502163402 | 21 | 249 | 27.4 | 32.2 | 0.00 | 0.00 | 0.00 | 43 | 1010.8 |
| 20260502162902 | 21 | 252 | 29.0 | 37.0 | 0.00 | 0.00 | 0.00 | 43 | 1010.9 |
| 20260502161902 | 21 | 239 | 24.1 | 37.0 | 0.00 | 0.00 | 0.00 | 42 | 1010.9 |
| 20260502161402 | 21 | 248 | 22.5 | 33.8 | 0.00 | 0.00 | 0.00 | 42 | 1011.0 |
| 20260502160902 | 21 | 241 | 29.0 | 37.0 | 0.00 | 0.00 | 0.00 | 41 | 1011.0 |
| 20260502160402 | 21 | 233 | 27.4 | 35.4 | 0.00 | 0.00 | 0.00 | 41 | 1011.1 |
| 20260502151902 | 21 | 244 | 25.7 | 37.0 | 0.00 | 0.00 | 0.00 | 38 | 1011.4 |
| 20260502150903 | 21 | 244 | 25.7 | 38.6 | 0.00 | 0.00 | 0.00 | 38 | 1011.5 |
| 20260502150402 | 22 | 237 | 27.4 | 38.6 | 0.00 | 0.00 | 0.00 | 37 | 1011.5 |
| 20260502130403 | 22 | 234 | 32.2 | 48.3 | 0.00 | 0.00 | 0.00 | 33 | 1013.0 |
| 20260502123402 | 23 | 237 | 35.4 | 45.1 | 0.00 | 0.00 | 0.00 | 34 | 1013.4 |
| 20260502122903 | 23 | 238 | 35.4 | 45.1 | 0.00 | 0.00 | 0.00 | 34 | 1013.4 |
| 20260502122403 | 23 | 234 | 35.4 | 46.7 | 0.00 | 0.00 | 0.00 | 36 | 1013.5 |
| 20260502121903 | 23 | 237 | 35.4 | 48.3 | 0.00 | 0.00 | 0.00 | 35 | 1013.6 |
| 20260502121402 | 23 | 225 | 35.4 | 45.1 | 0.00 | 0.00 | 0.00 | 35 | 1013.6 |
| 20260502120902 | 23 | 239 | 33.8 | 46.7 | 0.00 | 0.00 | 0.00 | 36 | 1013.7 |
| 20260502120403 | 23 | 226 | 37.0 | 49.9 | 0.00 | 0.00 | 0.00 | 35 | 1013.7 |
| 20260502115903 | 23 | 223 | 33.8 | 41.8 | 0.00 | 0.00 | 0.00 | 36 | 1013.8 |
| 20260502115402 | 22 | 227 | 32.2 | 41.8 | 0.00 | 0.00 | 0.00 | 36 | 1013.8 |
| 20260502114902 | 22 | 217 | 40.2 | 51.5 | 0.00 | 0.00 | 0.00 | 35 | 1013.9 |
| 20260502114402 | 22 | 225 | 37.0 | 49.9 | 0.00 | 0.00 | 0.00 | 36 | 1013.9 |
| 20260502113903 | 22 | 244 | 33.8 | 41.8 | 0.00 | 0.00 | 0.00 | 36 | 1014.0 |
| 20260502113402 | 22 | 242 | 33.8 | 48.3 | 0.00 | 0.00 | 0.00 | 38 | 1014.0 |
| 20260502112403 | 22 | 237 | 33.8 | 41.8 | 0.00 | 0.00 | 0.00 | 38 | 1014.1 |
| 20260502111903 | 22 | 239 | 35.4 | 46.7 | 0.00 | 0.00 | 0.00 | 37 | 1014.1 |
| 20260502111404 | 22 | 235 | 33.8 | 53.1 | 0.00 | 0.00 | 0.00 | 38 | 1014.1 |
| 20260502110403 | 22 | 241 | 41.8 | 49.9 | 0.00 | 0.00 | 0.00 | 38 | 1014.2 |
| 20260502105903 | 22 | 233 | 38.6 | 48.3 | 0.00 | 0.00 | 0.00 | 37 | 1014.3 |
| 20260502105402 | 22 | 234 | 38.6 | 46.7 | 0.00 | 0.00 | 0.00 | 38 | 1014.2 |
| 20260502104903 | 22 | 238 | 40.2 | 51.5 | 0.00 | 0.00 | 0.00 | 38 | 1014.4 |
| 20260502104402 | 22 | 227 | 33.8 | 41.8 | 0.00 | 0.00 | 0.00 | 40 | 1014.5 |
| 20260502103902 | 22 | 229 | 33.8 | 41.8 | 0.00 | 0.00 | 0.00 | 40 | 1014.5 |
| 20260502103403 | 22 | 212 | 29.0 | 40.2 | 0.00 | 0.00 | 0.00 | 41 | 1014.5 |
| 20260502102902 | 21 | 230 | 32.2 | 41.8 | 0.00 | 0.00 | 0.00 | 42 | 1014.7 |
| 20260502101903 | 21 | 243 | 35.4 | 45.1 | 0.00 | 0.00 | 0.00 | 43 | 1014.7 |
| 20260502100902 | 21 | 219 | 37.0 | 45.1 | 0.00 | 0.00 | 0.00 | 42 | 1014.9 |
| 20260502100402 | 21 | 226 | 29.0 | 41.8 | 0.00 | 0.00 | 0.00 | 43 | 1015.0 |
| 20260502091402 | 20 | 218 | 22.5 | 33.8 | 0.00 | 0.00 | 0.00 | 47 | 1015.2 |
| 20260502090902 | 20 | 214 | 25.7 | 32.2 | 0.00 | 0.00 | 0.00 | 46 | 1015.2 |
| 20260502071402 | 16 | 211 | 16.1 | 24.1 | 0.00 | 0.00 | 0.00 | 59 | 1016.3 |
| 20260502070902 | 16 | 203 | 19.3 | 27.4 | 0.00 | 0.00 | 0.00 | 59 | 1016.3 |
| 20260502070402 | 15 | 214 | 19.3 | 27.4 | 0.00 | 0.00 | 0.00 | 59 | 1016.3 |
| 20260502065902 | 15 | 207 | 17.7 | 24.1 | 0.00 | 0.00 | 0.00 | 60 | 1016.4 |
| 20260502065403 | 15 | 213 | 20.9 | 24.1 | 0.00 | 0.00 | 0.00 | 60 | 1016.5 |
| 20260502064902 | 15 | 201 | 16.1 | 25.7 | 0.00 | 0.00 | 0.00 | 61 | 1016.6 |
| 20260502064403 | 15 | 215 | 16.1 | 25.7 | 0.00 | 0.00 | 0.00 | 62 | 1016.6 |
| 20260502063902 | 15 | 202 | 17.7 | 22.5 | 0.00 | 0.00 | 0.00 | 62 | 1016.6 |
| 20260502063403 | 14 | 207 | 16.1 | 22.5 | 0.00 | 0.00 | 0.00 | 64 | 1016.7 |
| 20260502062903 | 13 | 198 | 12.9 | 20.9 | 0.00 | 0.00 | 0.00 | 65 | 1016.7 |
| 20260502062402 | 13 | 192 | 17.7 | 22.5 | 0.00 | 0.00 | 0.00 | 65 | 1016.7 |
| 20260502061403 | 13 | 183 | 14.5 | 19.3 | 0.00 | 0.00 | 0.00 | 68 | 1016.8 |
| 20260502060902 | 12 | 181 | 14.5 | 20.9 | 0.00 | 0.00 | 0.00 | 69 | 1016.8 |
| 20260502060402 | 12 | 186 | 12.9 | 19.3 | 0.00 | 0.00 | 0.00 | 70 | 1016.9 |
| 20260502055902 | 12 | 179 | 12.9 | 16.1 | 0.00 | 0.00 | 0.00 | 71 | 1016.9 |
| 20260502055403 | 12 | 167 | 12.9 | 19.3 | 0.00 | 0.00 | 0.00 | 71 | 1017.0 |
| 20260502054903 | 11 | 182 | 14.5 | 22.5 | 0.00 | 0.00 | 0.00 | 71 | 1017.1 |
| 20260502054402 | 11 | 174 | 14.5 | 22.5 | 0.00 | 0.00 | 0.00 | 72 | 1017.2 |
| 20260502053902 | 11 | 178 | 14.5 | 22.5 | 0.00 | 0.00 | 0.00 | 72 | 1017.2 |
| 20260502053405 | 11 | 176 | 14.5 | 24.1 | 0.00 | 0.00 | 0.00 | 74 | 1017.3 |
| 20260502052903 | 11 | 168 | 12.9 | 19.3 | 0.00 | 0.00 | 0.00 | 74 | 1017.2 |
| 20260502052403 | 10 | 165 | 12.9 | 19.3 | 0.00 | 0.00 | 0.00 | 75 | 1017.3 |
| 20260502051902 | 10 | 167 | 14.5 | 20.9 | 0.00 | 0.00 | 0.00 | 75 | 1017.3 |
| 20260502051403 | 10 | 172 | 16.1 | 22.5 | 0.00 | 0.00 | 0.00 | 75 | 1017.4 |
| 20260502050903 | 10 | 171 | 14.5 | 22.5 | 0.00 | 0.00 | 0.00 | 76 | 1017.5 |
| 20260502050403 | 10 | 176 | 16.1 | 22.5 | 0.00 | 0.00 | 0.00 | 76 | 1017.6 |
| 20260502045903 | 9 | 171 | 14.5 | 19.3 | 0.00 | 0.00 | 0.00 | 76 | 1017.6 |
| 20260502045402 | 9 | 179 | 12.9 | 19.3 | 0.00 | 0.00 | 0.00 | 77 | 1017.7 |
| 20260502044402 | 9 | 180 | 9.7 | 12.9 | 0.00 | 0.00 | 0.00 | 78 | 1017.9 |
| 20260502043903 | 8 | 178 | 9.7 | 16.1 | 0.00 | 0.00 | 0.00 | 78 | 1017.9 |
| 20260502043402 | 8 | 182 | 9.7 | 12.9 | 0.00 | 0.00 | 0.00 | 78 | 1018.0 |
| 20260502042404 | 8 | 178 | 9.7 | 14.5 | 0.00 | 0.00 | 0.00 | 79 | 1018.0 |
| 20260502041903 | 8 | 183 | 9.7 | 12.9 | 0.00 | 0.00 | 0.00 | 79 | 1018.1 |
| 20260502041403 | 8 | 177 | 8.0 | 12.9 | 0.00 | 0.00 | 0.00 | 80 | 1018.2 |
| 20260502040903 | 8 | 181 | 6.4 | 9.7 | 0.00 | 0.00 | 0.00 | 80 | 1018.2 |
| 20260502040403 | 8 | 182 | 8.0 | 12.9 | 0.00 | 0.00 | 0.00 | 80 | 1018.2 |
| 20260502035902 | 7 | 179 | 6.4 | 11.3 | 0.00 | 0.00 | 0.00 | 80 | 1018.3 |
| 20260502035402 | 7 | 177 | 8.0 | 11.3 | 0.00 | 0.00 | 0.00 | 80 | 1018.4 |
| 20260502034402 | 7 | 192 | 8.0 | 9.7 | 0.00 | 0.00 | 0.00 | 82 | 1018.5 |
| 20260502033903 | 7 | 196 | 8.0 | 9.7 | 0.00 | 0.00 | 0.00 | 82 | 1018.6 |
| 20260502033403 | 7 | 195 | 4.8 | 9.7 | 0.00 | 0.00 | 0.00 | 82 | 1018.7 |
| 20260502032903 | 7 | 198 | 8.0 | 9.7 | 0.00 | 0.00 | 0.00 | 83 | 1018.7 |
| 20260502032403 | 6 | 197 | 6.4 | 9.7 | 0.00 | 0.00 | 0.00 | 84 | 1018.8 |
| 20260502031903 | 6 | 191 | 8.0 | 11.3 | 0.00 | 0.00 | 0.00 | 84 | 1018.8 |
| 20260502031402 | 6 | 191 | 6.4 | 9.7 | 0.00 | 0.00 | 0.00 | 82 | 1018.9 |
| 20260502030903 | 6 | 205 | 4.8 | 4.8 | 0.00 | 0.00 | 0.00 | 82 | 1019.0 |
| 20260502030403 | 6 | 232 | 3.2 | 4.8 | 0.00 | 0.00 | 0.00 | 81 | 1019.0 |
| 20260502025903 | 6 | 235 | 3.2 | 4.8 | 0.00 | 0.00 | 0.00 | 81 | 1019.1 |
| 20260502025402 | 7 | 222 | 4.8 | 9.7 | 0.00 | 0.00 | 0.00 | 81 | 1019.0 |
| 20260502024903 | 7 | 212 | 4.8 | 9.7 | 0.00 | 0.00 | 0.00 | 82 | 1019.0 |
| 20260502024402 | 6 | 201 | 4.8 | 8.0 | 0.00 | 0.00 | 0.00 | 82 | 1019.1 |
| 20260502023902 | 6 | 231 | 4.8 | 4.8 | 0.00 | 0.00 | 0.00 | 81 | 1019.2 |
| 20260502022903 | 6 | 221 | 1.6 | 4.8 | 0.00 | 0.00 | 0.00 | 80 | 1019.3 |
| 20260502022403 | 6 | 218 | 1.6 | 3.2 | 0.00 | 0.00 | 0.00 | 80 | 1019.3 |
| 20260502021903 | 6 | 221 | 1.6 | 8.0 | 0.00 | 0.00 | 0.00 | 80 | 1019.4 |
| 20260502021402 | 6 | 208 | 3.2 | 4.8 | 0.00 | 0.00 | 0.00 | 80 | 1019.4 |
| 20260502020902 | 6 | 214 | 3.2 | 4.8 | 0.00 | 0.00 | 0.00 | 80 | 1019.5 |
| 20260502020403 | 6 | 201 | 3.2 | 4.8 | 0.00 | 0.00 | 0.00 | 80 | 1019.5 |
| 20260502015902 | 6 | 202 | 3.2 | 4.8 | 0.00 | 0.00 | 0.00 | 79 | 1019.6 |
| 20260502015403 | 6 | 225 | 3.2 | 4.8 | 0.00 | 0.00 | 0.00 | 79 | 1019.6 |
| 20260502014903 | 6 | 234 | 1.6 | 4.8 | 0.00 | 0.00 | 0.00 | 79 | 1019.8 |
| 20260502013903 | 7 | 214 | 4.8 | 9.7 | 0.00 | 0.00 | 0.00 | 79 | 1019.7 |
| 20260502012903 | 7 | 206 | 8.0 | 9.7 | 0.00 | 0.00 | 0.00 | 78 | 1019.8 |
| 20260502012403 | 7 | 210 | 8.0 | 9.7 | 0.00 | 0.00 | 0.00 | 77 | 1019.8 |
| 20260502011903 | 7 | 213 | 8.0 | 8.0 | 0.00 | 0.00 | 0.00 | 76 | 1019.9 |
| 20260502010903 | 7 | 242 | 6.4 | 8.0 | 0.00 | 0.00 | 0.00 | 76 | 1020.0 |
| 20260502010403 | 7 | 233 | 6.4 | 11.3 | 0.00 | 0.00 | 0.00 | 75 | 1020.0 |
| 20260502005903 | 7 | 224 | 8.0 | 12.9 | 0.00 | 0.00 | 0.00 | 75 | 1020.1 |
| 20260502005402 | 8 | 220 | 9.7 | 12.9 | 0.00 | 0.00 | 0.00 | 74 | 1020.1 |
| 20260502004903 | 8 | 218 | 11.3 | 16.1 | 0.00 | 0.00 | 0.00 | 74 | 1020.2 |
| 20260502003903 | 7 | 217 | 11.3 | 12.9 | 0.00 | 0.00 | 0.00 | 74 | 1020.3 |
| 20260502003404 | 7 | 214 | 11.3 | 14.5 | 0.00 | 0.00 | 0.00 | 74 | 1020.3 |
| 20260502002902 | 7 | 211 | 9.7 | 14.5 | 0.00 | 0.00 | 0.00 | 74 | 1020.4 |
| 20260502002403 | 7 | 215 | 9.7 | 12.9 | 0.00 | 0.00 | 0.00 | 73 | 1020.4 |
| 20260502001904 | 7 | 212 | 9.7 | 12.9 | 0.00 | 0.00 | 0.00 | 73 | 1020.4 |
| 20260502000903 | 8 | 206 | 8.0 | 11.3 | 0.00 | 0.00 | 0.00 | 72 | 1020.4 |
| 20260502000403 | 8 | 208 | 8.0 | 11.3 | 0.00 | 0.00 | 0.00 | 72 | 1020.5 |
| 20260501235403 | 8 | 206 | 6.4 | 8.0 | 0.00 | 0.00 | 0.00 | 72 | 1020.6 |
| 20260501234903 | 8 | 207 | 6.4 | 9.7 | 0.00 | 0.00 | 0.00 | 72 | 1020.7 |
| 20260501233403 | 8 | 197 | 4.8 | 8.0 | 0.00 | 0.00 | 0.00 | 72 | 1020.9 |
| 20260501232902 | 8 | 198 | 6.4 | 9.7 | 0.00 | 0.00 | 0.00 | 73 | 1020.9 |
| 20260501232403 | 7 | 207 | 8.0 | 8.0 | 0.00 | 0.00 | 0.00 | 73 | 1020.9 |